| time (UTC) | temp F | wind direction | speed MPH | gust MPH | rain 1hr in | rain 24hr in | rain mn in | humidity % | barometer mb |
| 20260509023902 | 58 | 221 | 12.0 | 25.0 | 0.00 | 0.00 | 0.00 | 47 | 1016.6 |
| 20260509023400 | 58 | 223 | 9.0 | 30.0 | 0.00 | 0.00 | 0.00 | 47 | 1016.6 |
| 20260509022856 | 58 | 153 | 2.0 | 24.0 | 0.00 | 0.00 | 0.00 | 46 | 1016.6 |
| 20260509022353 | 59 | 227 | 5.0 | 23.0 | 0.00 | 0.00 | 0.00 | 46 | 1016.2 |
| 20260509021850 | 59 | 234 | 7.0 | 21.0 | 0.00 | 0.00 | 0.00 | 45 | 1016.2 |
| 20260509021347 | 59 | 220 | 7.0 | 23.0 | 0.00 | 0.00 | 0.00 | 45 | 1016.3 |
| 20260509020845 | 60 | 164 | 8.0 | 15.0 | 0.00 | 0.00 | 0.00 | 44 | 1016.0 |
| 20260509020343 | 60 | 246 | 5.0 | 21.0 | 0.00 | 0.00 | 0.00 | 44 | 1016.1 |
| 20260509015840 | 60 | 236 | 11.0 | 20.0 | 0.00 | 0.00 | 0.00 | 44 | 1016.1 |
| 20260509015338 | 60 | 216 | 4.0 | 15.0 | 0.00 | 0.00 | 0.00 | 43 | 1015.8 |
| 20260509014834 | 60 | 222 | 7.0 | 15.0 | 0.00 | 0.00 | 0.00 | 42 | 1016.1 |
| 20260509014331 | 60 | 218 | 9.0 | 24.0 | 0.00 | 0.00 | 0.00 | 43 | 1016.0 |
| 20260509013828 | 60 | 220 | 6.0 | 21.0 | 0.00 | 0.00 | 0.00 | 43 | 1015.8 |
| 20260509013325 | 60 | 184 | 12.0 | 20.0 | 0.00 | 0.00 | 0.00 | 43 | 1015.8 |
| 20260509012820 | 60 | 222 | 8.0 | 20.0 | 0.00 | 0.00 | 0.00 | 42 | 1016.0 |
| 20260509012317 | 60 | 231 | 5.0 | 22.0 | 0.00 | 0.00 | 0.00 | 42 | 1016.1 |
| 20260509011815 | 60 | 228 | 6.0 | 28.0 | 0.00 | 0.00 | 0.00 | 42 | 1016.0 |
| 20260509011312 | 60 | 271 | 6.0 | 27.0 | 0.00 | 0.00 | 0.00 | 42 | 1015.7 |
| 20260509010810 | 61 | 227 | 9.0 | 24.0 | 0.00 | 0.00 | 0.00 | 41 | 1016.1 |
| 20260509010306 | 61 | 202 | 5.0 | 19.0 | 0.00 | 0.00 | 0.00 | 41 | 1015.8 |
| 20260509005803 | 62 | 179 | 3.0 | 19.0 | 0.00 | 0.00 | 0.00 | 41 | 1016.0 |
| 20260509005256 | 61 | 195 | 7.0 | 18.0 | 0.00 | 0.00 | 0.00 | 40 | 1016.1 |
| 20260509004755 | 60 | 214 | 4.0 | 20.0 | 0.00 | 0.00 | 0.00 | 41 | 1015.8 |
| 20260509004253 | 60 | 218 | 7.0 | 18.0 | 0.00 | 0.00 | 0.00 | 41 | 1015.8 |
| 20260509003751 | 60 | 14 | 4.0 | 17.0 | 0.00 | 0.00 | 0.00 | 41 | 1015.8 |
| 20260509003248 | 60 | 221 | 8.0 | 19.0 | 0.00 | 0.00 | 0.00 | 42 | 1016.0 |
| 20260509002745 | 60 | 250 | 2.0 | 17.0 | 0.00 | 0.00 | 0.00 | 42 | 1016.1 |
| 20260509002243 | 60 | 330 | 3.0 | 17.0 | 0.00 | 0.00 | 0.00 | 43 | 1016.3 |
| 20260509001740 | 59 | 250 | 9.0 | 18.0 | 0.00 | 0.00 | 0.00 | 42 | 1016.0 |
| 20260509001236 | 59 | 174 | 6.0 | 17.0 | 0.00 | 0.00 | 0.00 | 42 | 1016.2 |
| 20260509000734 | 59 | 225 | 5.0 | 18.0 | 0.00 | 0.00 | 0.00 | 42 | 1016.1 |
| 20260509000231 | 60 | 218 | 8.0 | 21.0 | 0.00 | 0.00 | 0.00 | 42 | 1015.8 |
| 20260508235728 | 60 | 209 | 7.0 | 26.0 | 0.00 | 0.00 | 0.00 | 42 | 1016.2 |
| 20260508235224 | 60 | 243 | 5.0 | 15.0 | 0.00 | 0.00 | 0.00 | 42 | 1015.8 |
| 20260508234721 | 60 | 211 | 8.0 | 21.0 | 0.00 | 0.00 | 0.00 | 42 | 1016.1 |
| 20260508234217 | 60 | 227 | 10.0 | 22.0 | 0.00 | 0.00 | 0.00 | 42 | 1015.7 |
| 20260508233712 | 60 | 244 | 10.0 | 21.0 | 0.00 | 0.00 | 0.00 | 42 | 1016.0 |
| 20260508233209 | 60 | 225 | 3.0 | 17.0 | 0.00 | 0.00 | 0.00 | 42 | 1015.7 |
| 20260508232706 | 60 | 181 | 6.0 | 19.0 | 0.00 | 0.00 | 0.00 | 42 | 1015.8 |
| 20260508232203 | 60 | 212 | 5.0 | 22.0 | 0.00 | 0.00 | 0.00 | 42 | 1015.6 |
| 20260508231701 | 60 | 232 | 10.0 | 29.0 | 0.00 | 0.00 | 0.00 | 43 | 1015.5 |
| 20260508231157 | 60 | 214 | 6.0 | 23.0 | 0.00 | 0.00 | 0.00 | 42 | 1015.6 |
| 20260508230654 | 60 | 234 | 7.0 | 20.0 | 0.00 | 0.00 | 0.00 | 43 | 1015.4 |
| 20260508230150 | 61 | 213 | 6.0 | 23.0 | 0.00 | 0.00 | 0.00 | 43 | 1015.5 |
| 20260508225648 | 60 | 49 | 4.0 | 13.0 | 0.00 | 0.00 | 0.00 | 44 | 1015.4 |
| 20260508225144 | 60 | 179 | 8.0 | 14.0 | 0.00 | 0.00 | 0.00 | 44 | 1015.4 |
| 20260508224642 | 61 | 97 | 4.0 | 17.0 | 0.00 | 0.00 | 0.00 | 44 | 1015.6 |
| 20260508224140 | 61 | 213 | 3.0 | 15.0 | 0.00 | 0.00 | 0.00 | 43 | 1015.4 |
| 20260508223637 | 61 | 237 | 3.0 | 19.0 | 0.00 | 0.00 | 0.00 | 43 | 1015.5 |
| 20260508223134 | 61 | 218 | 6.0 | 18.0 | 0.00 | 0.00 | 0.00 | 42 | 1015.7 |
| 20260508222632 | 62 | 220 | 5.0 | 18.0 | 0.00 | 0.00 | 0.00 | 42 | 1015.4 |
| 20260508222128 | 62 | 89 | 7.0 | 21.0 | 0.00 | 0.00 | 0.00 | 42 | 1015.2 |
| 20260508221625 | 62 | 234 | 9.0 | 25.0 | 0.00 | 0.00 | 0.00 | 41 | 1015.3 |
| 20260508221120 | 63 | 223 | 9.0 | 26.0 | 0.00 | 0.00 | 0.00 | 40 | 1015.5 |
| 20260508220617 | 64 | 220 | 8.0 | 20.0 | 0.00 | 0.00 | 0.00 | 40 | 1015.4 |
| 20260508220114 | 63 | 213 | 4.0 | 19.0 | 0.00 | 0.00 | 0.00 | 41 | 1015.2 |
| 20260508215611 | 63 | 244 | 7.0 | 17.0 | 0.00 | 0.00 | 0.00 | 40 | 1015.3 |
| 20260508215107 | 64 | 26 | 3.0 | 15.0 | 0.00 | 0.00 | 0.00 | 40 | 1015.5 |
| 20260508214605 | 63 | 209 | 6.0 | 16.0 | 0.00 | 0.00 | 0.00 | 41 | 1015.2 |
| 20260508214101 | 62 | 208 | 7.0 | 20.0 | 0.00 | 0.00 | 0.00 | 41 | 1015.3 |
| 20260508213558 | 62 | 226 | 12.0 | 18.0 | 0.00 | 0.00 | 0.00 | 42 | 1015.3 |
| 20260508213054 | 62 | 262 | 6.0 | 21.0 | 0.00 | 0.00 | 0.00 | 43 | 1015.4 |
| 20260508212551 | 62 | 244 | 7.0 | 19.0 | 0.00 | 0.00 | 0.00 | 43 | 1015.4 |
| 20260508212047 | 62 | 226 | 6.0 | 18.0 | 0.00 | 0.00 | 0.00 | 43 | 1015.3 |
| 20260508211543 | 62 | 187 | 3.0 | 20.0 | 0.00 | 0.00 | 0.00 | 43 | 1015.3 |
| 20260508211039 | 61 | 254 | 6.0 | 12.0 | 0.00 | 0.00 | 0.00 | 43 | 1015.3 |
| 20260508210536 | 61 | 251 | 12.0 | 16.0 | 0.00 | 0.00 | 0.00 | 44 | 1015.2 |
| 20260508210034 | 61 | 201 | 5.0 | 17.0 | 0.00 | 0.00 | 0.00 | 44 | 1015.2 |
| 20260508205530 | 61 | 233 | 16.0 | 17.0 | 0.00 | 0.00 | 0.00 | 44 | 1015.1 |
| 20260508205027 | 61 | 219 | 11.0 | 15.0 | 0.00 | 0.00 | 0.00 | 44 | 1015.1 |
| 20260508204524 | 61 | 202 | 4.0 | 24.0 | 0.00 | 0.00 | 0.00 | 44 | 1015.3 |
| 20260508204019 | 61 | 218 | 12.0 | 19.0 | 0.00 | 0.00 | 0.00 | 44 | 1015.2 |
| 20260508203515 | 61 | 216 | 10.0 | 22.0 | 0.00 | 0.00 | 0.00 | 44 | 1015.0 |
| 20260508203011 | 61 | 169 | 7.0 | 20.0 | 0.00 | 0.00 | 0.00 | 44 | 1015.0 |
| 20260508202509 | 61 | 229 | 13.0 | 23.0 | 0.00 | 0.00 | 0.00 | 43 | 1015.0 |
| 20260508202006 | 61 | 181 | 2.0 | 14.0 | 0.00 | 0.00 | 0.00 | 45 | 1014.7 |
| 20260508201502 | 61 | 181 | 6.0 | 20.0 | 0.00 | 0.00 | 0.00 | 44 | 1014.9 |
| 20260508200959 | 61 | 235 | 9.0 | 20.0 | 0.00 | 0.00 | 0.00 | 44 | 1014.7 |
| 20260508200456 | 61 | 154 | 5.0 | 21.0 | 0.00 | 0.00 | 0.00 | 45 | 1015.0 |
| 20260508195950 | 61 | 180 | 9.0 | 23.0 | 0.00 | 0.00 | 0.00 | 44 | 1014.8 |
| 20260508195448 | 62 | 218 | 6.0 | 22.0 | 0.00 | 0.00 | 0.00 | 44 | 1014.9 |
| 20260508194944 | 62 | 224 | 4.0 | 15.0 | 0.00 | 0.00 | 0.00 | 45 | 1014.6 |
| 20260508194442 | 62 | 222 | 13.0 | 18.0 | 0.00 | 0.00 | 0.00 | 43 | 1014.7 |
| 20260508193938 | 61 | 190 | 5.0 | 11.0 | 0.00 | 0.00 | 0.00 | 44 | 1015.0 |
| 20260508193435 | 62 | 224 | 5.0 | 11.0 | 0.00 | 0.00 | 0.00 | 43 | 1014.9 |
| 20260508192932 | 62 | 224 | 10.0 | 20.0 | 0.00 | 0.00 | 0.00 | 42 | 1014.7 |
| 20260508192429 | 62 | 218 | 2.0 | 12.0 | 0.00 | 0.00 | 0.00 | 43 | 1014.8 |
| 20260508191926 | 61 | 249 | 8.0 | 15.0 | 0.00 | 0.00 | 0.00 | 43 | 1014.6 |
| 20260508191423 | 61 | 216 | 6.0 | 12.0 | 0.00 | 0.00 | 0.00 | 43 | 1014.7 |
| 20260508190920 | 61 | 226 | 6.0 | 10.0 | 0.00 | 0.00 | 0.00 | 44 | 1014.9 |
| 20260508190417 | 60 | 213 | 6.0 | 12.0 | 0.00 | 0.00 | 0.00 | 44 | 1015.1 |
| 20260508185913 | 60 | 238 | 2.0 | 9.0 | 0.00 | 0.00 | 0.00 | 45 | 1015.1 |
| 20260508185410 | 60 | 223 | 7.0 | 18.0 | 0.00 | 0.00 | 0.00 | 45 | 1015.2 |
| 20260508184907 | 59 | 236 | 5.0 | 12.0 | 0.00 | 0.00 | 0.00 | 46 | 1014.9 |
| 20260508184405 | 59 | 240 | 3.0 | 18.0 | 0.00 | 0.00 | 0.00 | 47 | 1015.1 |
| 20260508183902 | 59 | 210 | 3.0 | 15.0 | 0.00 | 0.00 | 0.00 | 48 | 1015.1 |
| 20260508183358 | 59 | 287 | 3.0 | 28.0 | 0.00 | 0.00 | 0.00 | 47 | 1014.9 |
| 20260508182853 | 58 | 234 | 6.0 | 21.0 | 0.00 | 0.00 | 0.00 | 47 | 1015.0 |
| 20260508182351 | 59 | 229 | 4.0 | 15.0 | 0.00 | 0.00 | 0.00 | 47 | 1015.1 |
| 20260508181846 | 58 | 238 | 19.0 | 19.0 | 0.00 | 0.00 | 0.00 | 47 | 1014.8 |
| 20260508181343 | 58 | 285 | 2.0 | 17.0 | 0.00 | 0.00 | 0.00 | 48 | 1014.9 |
| 20260508180840 | 58 | 188 | 4.0 | 30.0 | 0.00 | 0.00 | 0.00 | 48 | 1014.8 |
| 20260508180337 | 58 | 219 | 8.0 | 23.0 | 0.00 | 0.00 | 0.00 | 48 | 1014.9 |
| 20260508175833 | 58 | 283 | 10.0 | 17.0 | 0.00 | 0.00 | 0.00 | 48 | 1014.8 |
| 20260508175330 | 58 | 193 | 3.0 | 15.0 | 0.00 | 0.00 | 0.00 | 49 | 1014.7 |
| 20260508174828 | 58 | 244 | 7.0 | 20.0 | 0.00 | 0.00 | 0.00 | 48 | 1014.9 |
| 20260508174325 | 59 | 228 | 6.0 | 19.0 | 0.00 | 0.00 | 0.00 | 48 | 1014.8 |
| 20260508173821 | 58 | 251 | 11.0 | 16.0 | 0.00 | 0.00 | 0.00 | 48 | 1014.7 |
| 20260508173319 | 58 | 240 | 4.0 | 24.0 | 0.00 | 0.00 | 0.00 | 48 | 1014.8 |
| 20260508172814 | 58 | 232 | 8.0 | 14.0 | 0.00 | 0.00 | 0.00 | 47 | 1015.0 |
| 20260508172312 | 58 | 225 | 5.0 | 19.0 | 0.00 | 0.00 | 0.00 | 48 | 1014.8 |
| 20260508171808 | 58 | 187 | 5.0 | 28.0 | 0.00 | 0.00 | 0.00 | 48 | 1014.9 |
| 20260508171304 | 59 | 183 | 3.0 | 13.0 | 0.00 | 0.00 | 0.00 | 48 | 1014.9 |
| 20260508170801 | 59 | 239 | 9.0 | 15.0 | 0.00 | 0.00 | 0.00 | 48 | 1015.0 |
| 20260508170259 | 59 | 224 | 14.0 | 15.0 | 0.00 | 0.00 | 0.00 | 48 | 1014.9 |
| 20260508165755 | 59 | 233 | 12.0 | 19.0 | 0.00 | 0.00 | 0.00 | 50 | 1014.8 |
| 20260508165253 | 59 | 223 | 2.0 | 19.0 | 0.00 | 0.00 | 0.00 | 51 | 1014.5 |
| 20260508164749 | 59 | 225 | 4.0 | 16.0 | 0.00 | 0.00 | 0.00 | 51 | 1014.5 |
| 20260508164246 | 59 | 241 | 9.0 | 17.0 | 0.00 | 0.00 | 0.00 | 52 | 1014.3 |
| 20260508163744 | 59 | 221 | 3.0 | 16.0 | 0.00 | 0.00 | 0.00 | 53 | 1014.5 |
| 20260508163241 | 59 | 262 | 7.0 | 18.0 | 0.00 | 0.00 | 0.00 | 52 | 1014.4 |
| 20260508162731 | 58 | 258 | 4.0 | 21.0 | 0.00 | 0.00 | 0.00 | 53 | 1014.5 |
| 20260508162228 | 59 | 235 | 9.0 | 15.0 | 0.00 | 0.00 | 0.00 | 52 | 1014.6 |
| 20260508161725 | 59 | 55 | 2.0 | 6.0 | 0.00 | 0.00 | 0.00 | 53 | 1014.4 |
| 20260508161223 | 59 | 350 | 7.0 | 13.0 | 0.00 | 0.00 | 0.00 | 54 | 1014.3 |
| 20260508160720 | 59 | 242 | 6.0 | 15.0 | 0.00 | 0.00 | 0.00 | 53 | 1014.0 |
| 20260508160219 | 59 | 278 | 6.0 | 13.0 | 0.00 | 0.00 | 0.00 | 53 | 1014.3 |
| 20260508155715 | 59 | 282 | 16.0 | 16.0 | 0.00 | 0.00 | 0.00 | 54 | 1014.3 |
| 20260508155212 | 59 | 265 | 5.0 | 18.0 | 0.00 | 0.00 | 0.00 | 53 | 1014.4 |
| 20260508154709 | 58 | 286 | 5.0 | 22.0 | 0.00 | 0.00 | 0.00 | 54 | 1014.0 |
| 20260508154206 | 58 | 249 | 7.0 | 18.0 | 0.00 | 0.00 | 0.00 | 54 | 1014.2 |
| 20260508153702 | 58 | 323 | 5.0 | 12.0 | 0.00 | 0.00 | 0.00 | 54 | 1013.9 |
| 20260508153200 | 58 | 229 | 2.0 | 20.0 | 0.00 | 0.00 | 0.00 | 55 | 1014.0 |
| 20260508152656 | 58 | 272 | 6.0 | 17.0 | 0.00 | 0.00 | 0.00 | 55 | 1014.0 |
| 20260508152152 | 58 | 210 | 4.0 | 9.0 | 0.00 | 0.00 | 0.00 | 55 | 1014.0 |
| 20260508151648 | 58 | 221 | 11.0 | 16.0 | 0.00 | 0.00 | 0.00 | 55 | 1014.3 |
| 20260508151145 | 58 | 255 | 5.0 | 17.0 | 0.00 | 0.00 | 0.00 | 55 | 1014.2 |
| 20260508150642 | 57 | 251 | 6.0 | 18.0 | 0.00 | 0.00 | 0.00 | 56 | 1014.4 |
| 20260508150139 | 57 | 299 | 3.0 | 14.0 | 0.00 | 0.00 | 0.00 | 56 | 1014.2 |
| 20260508145635 | 57 | 353 | 5.0 | 9.0 | 0.00 | 0.00 | 0.00 | 58 | 1014.4 |
| 20260508145131 | 56 | 209 | 5.0 | 7.0 | 0.00 | 0.00 | 0.00 | 58 | 1014.3 |
| 20260508144629 | 56 | 299 | 7.0 | 10.0 | 0.00 | 0.00 | 0.00 | 59 | 1014.3 |
| 20260508144126 | 56 | 302 | 6.0 | 15.0 | 0.00 | 0.00 | 0.00 | 60 | 1014.2 |
| 20260508143624 | 52 | 341 | 7.0 | 8.0 | 0.00 | 0.00 | 0.00 | 67 | 1014.2 |
| 20260508143120 | 52 | 338 | 2.0 | 8.0 | 0.00 | 0.00 | 0.00 | 67 | 1014.4 |
| 20260508142617 | 50 | 236 | 4.0 | 7.0 | 0.00 | 0.00 | 0.00 | 68 | 1014.5 |
| 20260508142114 | 53 | 223 | 3.0 | 4.0 | 0.00 | 0.00 | 0.00 | 66 | 1014.3 |
| 20260508141610 | 53 | 356 | 3.0 | 5.0 | 0.00 | 0.00 | 0.00 | 67 | 1014.4 |
| 20260508141108 | 50 | 352 | 1.0 | 5.0 | 0.00 | 0.00 | 0.00 | 69 | 1014.3 |
| 20260508140605 | 50 | 351 | 3.0 | 6.0 | 0.00 | 0.00 | 0.00 | 69 | 1014.3 |
| 20260508135557 | 50 | 68 | 3.0 | 5.0 | 0.00 | 0.00 | 0.00 | 72 | 1014.4 |
| 20260508135053 | 50 | 6 | 3.0 | 3.0 | 0.00 | 0.00 | 0.00 | 70 | 1014.5 |
| 20260508134550 | 50 | 345 | 2.0 | 3.0 | 0.00 | 0.00 | 0.00 | 72 | 1014.4 |
| 20260508134047 | 50 | 177 | 3.0 | 6.0 | 0.00 | 0.00 | 0.00 | 72 | 1014.4 |
| 20260508133544 | 50 | 55 | 1.0 | 4.0 | 0.00 | 0.00 | 0.00 | 70 | 1014.4 |
| 20260508133041 | 49 | 76 | 2.0 | 4.0 | 0.00 | 0.00 | 0.00 | 70 | 1014.5 |
| 20260508132539 | 48 | 47 | 2.0 | 2.0 | 0.00 | 0.00 | 0.00 | 73 | 1014.6 |
| 20260508132035 | 48 | 68 | 2.0 | 4.0 | 0.00 | 0.00 | 0.00 | 75 | 1014.3 |
| 20260508131530 | 47 | 127 | 2.0 | 4.0 | 0.00 | 0.00 | 0.00 | 75 | 1014.4 |
| 20260508131028 | 46 | 68 | 0.0 | 3.0 | 0.00 | 0.00 | 0.00 | 77 | 1014.5 |
| 20260508130525 | 46 | 9 | 2.0 | 4.0 | 0.00 | 0.00 | 0.00 | 76 | 1014.3 |
| 20260508130021 | 45 | 39 | 2.0 | 3.0 | 0.00 | 0.00 | 0.00 | 76 | 1014.5 |
| 20260508125517 | 45 | 83 | 0.0 | 2.0 | 0.00 | 0.00 | 0.00 | 76 | 1014.6 |
| 20260508125015 | 45 | 71 | 0.0 | 3.0 | 0.00 | 0.00 | 0.00 | 77 | 1014.4 |
| 20260508124513 | 44 | 145 | 1.0 | 3.0 | 0.00 | 0.00 | 0.00 | 79 | 1014.4 |
| 20260508124009 | 44 | 66 | 0.0 | 3.0 | 0.00 | 0.00 | 0.00 | 79 | 1014.2 |
| 20260508123503 | 44 | 115 | 1.0 | 3.0 | 0.00 | 0.00 | 0.00 | 78 | 1014.3 |
| 20260508122958 | 44 | 52 | 0.0 | 3.0 | 0.00 | 0.00 | 0.00 | 78 | 1014.3 |
| 20260508122455 | 44 | 69 | 0.0 | 3.0 | 0.00 | 0.00 | 0.00 | 78 | 1014.3 |
| 20260508121952 | 44 | 133 | 2.0 | 3.0 | 0.00 | 0.00 | 0.00 | 78 | 1014.5 |
| 20260508121451 | 44 | 165 | 1.0 | 3.0 | 0.00 | 0.00 | 0.00 | 78 | 1014.4 |
| 20260508120948 | 44 | 94 | 3.0 | 4.0 | 0.00 | 0.00 | 0.00 | 79 | 1014.2 |
| 20260508120446 | 44 | 271 | 0.0 | 4.0 | 0.00 | 0.00 | 0.00 | 79 | 1014.5 |
| 20260508115943 | 44 | 123 | 2.0 | 3.0 | 0.00 | 0.00 | 0.00 | 78 | 1014.3 |
| 20260508115441 | 44 | 77 | 2.0 | 3.0 | 0.00 | 0.00 | 0.00 | 79 | 1014.4 |
| 20260508114937 | 44 | 101 | 1.0 | 2.0 | 0.00 | 0.00 | 0.00 | 79 | 1014.3 |
| 20260508114435 | 44 | 52 | 2.0 | 3.0 | 0.00 | 0.00 | 0.00 | 79 | 1014.3 |
| 20260508113931 | 44 | 70 | 2.0 | 3.0 | 0.00 | 0.00 | 0.00 | 77 | 1014.3 |
| 20260508113429 | 44 | 8 | 2.0 | 3.0 | 0.00 | 0.00 | 0.00 | 77 | 1014.2 |
| 20260508112926 | 44 | 59 | 3.0 | 4.0 | 0.00 | 0.00 | 0.00 | 78 | 1014.3 |
| 20260508112422 | 44 | 60 | 2.0 | 3.0 | 0.00 | 0.00 | 0.00 | 78 | 1014.0 |
| 20260508111919 | 44 | 69 | 0.0 | 2.0 | 0.00 | 0.00 | 0.00 | 78 | 1014.3 |
| 20260508111416 | 44 | 26 | 2.0 | 3.0 | 0.00 | 0.00 | 0.00 | 77 | 1014.4 |
| 20260508110913 | 44 | 89 | 1.0 | 2.0 | 0.00 | 0.00 | 0.00 | 77 | 1014.2 |
| 20260508110411 | 45 | 51 | 1.0 | 3.0 | 0.00 | 0.00 | 0.00 | 76 | 1014.3 |
| 20260508105910 | 45 | 69 | 0.0 | 4.0 | 0.00 | 0.00 | 0.00 | 75 | 1014.2 |
| 20260508105407 | 45 | 74 | 2.0 | 3.0 | 0.00 | 0.00 | 0.00 | 75 | 1014.3 |
| 20260508104904 | 46 | 86 | 0.0 | 3.0 | 0.00 | 0.00 | 0.00 | 77 | 1013.9 |
| 20260508104401 | 46 | 107 | 1.0 | 3.0 | 0.00 | 0.00 | 0.00 | 76 | 1014.0 |
| 20260508103858 | 46 | 29 | 3.0 | 3.0 | 0.00 | 0.00 | 0.00 | 75 | 1014.2 |
| 20260508103355 | 47 | 10 | 2.0 | 3.0 | 0.00 | 0.00 | 0.00 | 74 | 1014.0 |
| 20260508102853 | 47 | 86 | 2.0 | 3.0 | 0.00 | 0.00 | 0.00 | 73 | 1014.3 |
| 20260508102351 | 47 | 6 | 2.0 | 3.0 | 0.00 | 0.00 | 0.00 | 73 | 1014.2 |
| 20260508101848 | 47 | 116 | 2.0 | 4.0 | 0.00 | 0.00 | 0.00 | 72 | 1014.2 |
| 20260508101345 | 47 | 119 | 2.0 | 3.0 | 0.00 | 0.00 | 0.00 | 72 | 1014.5 |
| 20260508100842 | 48 | 28 | 2.0 | 3.0 | 0.00 | 0.00 | 0.00 | 71 | 1014.0 |
| 20260508100341 | 47 | 89 | 1.0 | 2.0 | 0.00 | 0.00 | 0.00 | 71 | 1014.3 |
| 20260508095836 | 48 | 77 | 0.0 | 3.0 | 0.00 | 0.00 | 0.00 | 70 | 1014.0 |
| 20260508095334 | 48 | 269 | 0.0 | 1.0 | 0.00 | 0.00 | 0.00 | 70 | 1014.2 |
| 20260508094831 | 47 | 67 | 2.0 | 3.0 | 0.00 | 0.00 | 0.00 | 70 | 1014.0 |
| 20260508094328 | 48 | 68 | 3.0 | 4.0 | 0.00 | 0.00 | 0.00 | 70 | 1014.3 |
| 20260508093825 | 47 | 62 | 2.0 | 4.0 | 0.00 | 0.00 | 0.00 | 70 | 1014.3 |
| 20260508093322 | 48 | 53 | 0.0 | 2.0 | 0.00 | 0.00 | 0.00 | 69 | 1014.2 |
| 20260508092820 | 48 | 13 | 2.0 | 3.0 | 0.00 | 0.00 | 0.00 | 69 | 1013.9 |
| 20260508092317 | 48 | 79 | 0.0 | 3.0 | 0.00 | 0.00 | 0.00 | 68 | 1014.2 |
| 20260508091815 | 48 | 66 | 2.0 | 6.0 | 0.00 | 0.00 | 0.00 | 69 | 1014.0 |
| 20260508091311 | 48 | 34 | 1.0 | 2.0 | 0.00 | 0.00 | 0.00 | 70 | 1014.2 |
| 20260508090809 | 48 | 47 | 3.0 | 3.0 | 0.00 | 0.00 | 0.00 | 71 | 1014.2 |
| 20260508090308 | 48 | 82 | 2.0 | 3.0 | 0.00 | 0.00 | 0.00 | 70 | 1014.2 |
| 20260508085803 | 49 | 24 | 2.0 | 3.0 | 0.00 | 0.00 | 0.00 | 69 | 1014.2 |
| 20260508085300 | 49 | 60 | 3.0 | 3.0 | 0.00 | 0.00 | 0.00 | 66 | 1014.2 |
| 20260508084756 | 50 | 62 | 2.0 | 4.0 | 0.00 | 0.00 | 0.00 | 65 | 1014.3 |
| 20260508084253 | 49 | 329 | 0.0 | 3.0 | 0.00 | 0.00 | 0.00 | 65 | 1014.0 |
| 20260508083751 | 49 | 98 | 3.0 | 5.0 | 0.00 | 0.00 | 0.00 | 67 | 1014.3 |
| 20260508083248 | 50 | 356 | 0.0 | 3.0 | 0.00 | 0.00 | 0.00 | 67 | 1014.0 |
| 20260508082748 | 50 | 39 | 3.0 | 3.0 | 0.00 | 0.00 | 0.00 | 66 | 1014.0 |
| 20260508082246 | 50 | 70 | 1.0 | 2.0 | 0.00 | 0.00 | 0.00 | 65 | 1014.2 |
| 20260508081743 | 51 | 317 | 0.0 | 3.0 | 0.00 | 0.00 | 0.00 | 63 | 1014.0 |
| 20260508081240 | 52 | 118 | 2.0 | 4.0 | 0.00 | 0.00 | 0.00 | 63 | 1014.0 |
| 20260508080737 | 52 | 54 | 3.0 | 4.0 | 0.00 | 0.00 | 0.00 | 62 | 1014.0 |
| 20260508080235 | 51 | 99 | 1.0 | 3.0 | 0.00 | 0.00 | 0.00 | 63 | 1014.0 |
| 20260508075731 | 51 | 64 | 0.0 | 1.0 | 0.00 | 0.00 | 0.00 | 63 | 1013.8 |
| 20260508075228 | 51 | 94 | 1.0 | 2.0 | 0.00 | 0.00 | 0.00 | 63 | 1014.0 |
| 20260508074726 | 52 | 51 | 2.0 | 3.0 | 0.00 | 0.00 | 0.00 | 64 | 1013.7 |
| 20260508074223 | 52 | 87 | 0.0 | 3.0 | 0.00 | 0.00 | 0.00 | 64 | 1013.9 |
| 20260508073720 | 52 | 56 | 2.0 | 3.0 | 0.00 | 0.00 | 0.00 | 63 | 1013.8 |
| 20260508073218 | 52 | 63 | 0.0 | 2.0 | 0.00 | 0.00 | 0.00 | 63 | 1013.9 |
| 20260508072714 | 51 | 71 | 0.0 | 2.0 | 0.00 | 0.00 | 0.00 | 63 | 1013.9 |
| 20260508072210 | 52 | 113 | 0.0 | 1.0 | 0.00 | 0.00 | 0.00 | 61 | 1013.8 |
| 20260508071708 | 53 | 44 | 1.0 | 3.0 | 0.00 | 0.00 | 0.00 | 60 | 1013.7 |
| 20260508071206 | 53 | 36 | 0.0 | 2.0 | 0.00 | 0.00 | 0.00 | 60 | 1013.7 |
| 20260508070703 | 54 | 337 | 1.0 | 2.0 | 0.00 | 0.00 | 0.00 | 59 | 1013.6 |
| 20260508070202 | 55 | 39 | 1.0 | 3.0 | 0.00 | 0.00 | 0.00 | 57 | 1013.9 |
| 20260508065659 | 55 | 32 | 0.0 | 2.0 | 0.00 | 0.00 | 0.00 | 57 | 1013.8 |
| 20260508065156 | 55 | 322 | 2.0 | 3.0 | 0.00 | 0.00 | 0.00 | 56 | 1013.9 |
| 20260508064654 | 55 | 78 | 2.0 | 3.0 | 0.00 | 0.00 | 0.00 | 56 | 1013.7 |
| 20260508064152 | 55 | 64 | 0.0 | 2.0 | 0.00 | 0.00 | 0.00 | 56 | 1013.8 |
| 20260508063649 | 56 | 118 | 2.0 | 2.0 | 0.00 | 0.00 | 0.00 | 54 | 1013.9 |
| 20260508063147 | 57 | 347 | 2.0 | 3.0 | 0.00 | 0.00 | 0.00 | 53 | 1013.9 |
| 20260508062644 | 57 | 42 | 2.0 | 3.0 | 0.00 | 0.00 | 0.00 | 51 | 1013.8 |
| 20260508062141 | 58 | 17 | 2.0 | 2.0 | 0.00 | 0.00 | 0.00 | 50 | 1013.8 |
| 20260508061638 | 58 | 265 | 2.0 | 4.0 | 0.00 | 0.00 | 0.00 | 50 | 1013.8 |
| 20260508061136 | 58 | 235 | 1.0 | 4.0 | 0.00 | 0.00 | 0.00 | 50 | 1013.7 |
| 20260508060632 | 58 | 321 | 1.0 | 3.0 | 0.00 | 0.00 | 0.00 | 50 | 1013.5 |
| 20260508060129 | 59 | 14 | 3.0 | 3.0 | 0.00 | 0.00 | 0.00 | 48 | 1013.7 |
| 20260508055625 | 59 | 224 | 2.0 | 4.0 | 0.00 | 0.00 | 0.00 | 48 | 1013.7 |
| 20260508055122 | 59 | 74 | 3.0 | 5.0 | 0.00 | 0.00 | 0.00 | 48 | 1013.8 |
| 20260508054618 | 59 | 3 | 0.0 | 2.0 | 0.00 | 0.00 | 0.00 | 48 | 1013.5 |
| 20260508054116 | 60 | 47 | 1.0 | 4.0 | 0.00 | 0.00 | 0.00 | 47 | 1013.7 |
| 20260508053612 | 60 | 92 | 1.0 | 3.0 | 0.00 | 0.00 | 0.00 | 47 | 1013.7 |
| 20260508053111 | 62 | 313 | 2.0 | 2.0 | 0.00 | 0.00 | 0.00 | 46 | 1013.6 |
| 20260508052608 | 62 | 214 | 1.0 | 3.0 | 0.00 | 0.00 | 0.00 | 44 | 1013.5 |
| 20260508052105 | 63 | 337 | 3.0 | 3.0 | 0.00 | 0.00 | 0.00 | 43 | 1013.3 |
| 20260508051601 | 64 | 358 | 1.0 | 4.0 | 0.00 | 0.00 | 0.00 | 41 | 1013.6 |
| 20260508051056 | 64 | 239 | 3.0 | 5.0 | 0.00 | 0.00 | 0.00 | 41 | 1013.5 |
| 20260508050553 | 65 | 167 | 2.0 | 7.0 | 0.00 | 0.00 | 0.00 | 41 | 1013.3 |
| 20260508050050 | 66 | 220 | 2.0 | 6.0 | 0.00 | 0.00 | 0.00 | 39 | 1013.4 |
| 20260508045546 | 66 | 248 | 5.0 | 12.0 | 0.00 | 0.00 | 0.00 | 39 | 1013.4 |
| 20260508045044 | 66 | 311 | 5.0 | 11.0 | 0.00 | 0.00 | 0.00 | 39 | 1013.4 |
| 20260508044541 | 65 | 267 | 3.0 | 7.0 | 0.00 | 0.00 | 0.00 | 40 | 1013.3 |
| 20260508044037 | 66 | 259 | 1.0 | 5.0 | 0.00 | 0.00 | 0.00 | 39 | 1013.2 |
| 20260508043534 | 66 | 245 | 0.0 | 3.0 | 0.00 | 0.00 | 0.00 | 38 | 1012.9 |
| 20260508043031 | 66 | 286 | 4.0 | 6.0 | 0.00 | 0.00 | 0.00 | 39 | 1013.3 |
| 20260508042528 | 66 | 331 | 2.0 | 2.0 | 0.00 | 0.00 | 0.00 | 38 | 1013.2 |
| 20260508042025 | 66 | 263 | 2.0 | 7.0 | 0.00 | 0.00 | 0.00 | 38 | 1013.2 |
| 20260508041521 | 66 | 345 | 0.0 | 3.0 | 0.00 | 0.00 | 0.00 | 39 | 1013.2 |
| 20260508041018 | 67 | 254 | 2.0 | 3.0 | 0.00 | 0.00 | 0.00 | 38 | 1013.0 |
| 20260508040515 | 67 | 329 | 3.0 | 9.0 | 0.00 | 0.00 | 0.00 | 38 | 1013.0 |
| 20260508040013 | 67 | 256 | 0.0 | 4.0 | 0.00 | 0.00 | 0.00 | 38 | 1013.1 |
| 20260508035509 | 68 | 242 | 1.0 | 10.0 | 0.00 | 0.00 | 0.00 | 38 | 1013.1 |
| 20260508035006 | 68 | 331 | 4.0 | 7.0 | 0.00 | 0.00 | 0.00 | 37 | 1012.9 |
| 20260508034504 | 68 | 171 | 0.0 | 3.0 | 0.00 | 0.00 | 0.00 | 38 | 1012.6 |
| 20260508034000 | 68 | 309 | 3.0 | 5.0 | 0.00 | 0.00 | 0.00 | 38 | 1012.7 |
| 20260508033458 | 68 | 309 | 0.0 | 3.0 | 0.00 | 0.00 | 0.00 | 38 | 1012.6 |
| 20260508032955 | 69 | 2 | 2.0 | 4.0 | 0.00 | 0.00 | 0.00 | 38 | 1012.6 |
| 20260508032453 | 69 | 68 | 1.0 | 2.0 | 0.00 | 0.00 | 0.00 | 37 | 1012.7 |
| 20260508031949 | 69 | 265 | 1.0 | 3.0 | 0.00 | 0.00 | 0.00 | 37 | 1012.2 |
| 20260508031447 | 70 | 220 | 0.0 | 6.0 | 0.00 | 0.00 | 0.00 | 36 | 1012.5 |
| 20260508030942 | 71 | 237 | 2.0 | 8.0 | 0.00 | 0.00 | 0.00 | 36 | 1012.5 |
| 20260508030440 | 71 | 227 | 4.0 | 9.0 | 0.00 | 0.00 | 0.00 | 35 | 1012.5 |
| 20260508025937 | 71 | 279 | 2.0 | 5.0 | 0.00 | 0.00 | 0.00 | 35 | 1012.4 |
| 20260508025433 | 72 | 75 | 1.0 | 4.0 | 0.00 | 0.00 | 0.00 | 34 | 1012.4 |
| 20260508024931 | 72 | 240 | 3.0 | 12.0 | 0.00 | 0.00 | 0.00 | 33 | 1012.4 |
| 20260508024427 | 73 | 216 | 4.0 | 12.0 | 0.00 | 0.00 | 0.00 | 33 | 1012.4 |